Location: Rumah Long Bangan
(2.8362°N, 113.7519°E)
Time: 19:16:02
(UTC+00:00)

Ariane H10+ - Pass Details

Date: 24 October 2021
Orbit: 236 x 7691 km, 6.8° (Epoch: 08 December)

Event Time Altitude Azimuth Distance (km) Brightness Sun altitude
Exits shadow 18:17:26 18° 81° (E) 3,138 5.3 -56.9°
Drops below altitude 10° 18:20:45 10° 82° (E) 4,455 6.2 -56.2°
Enters shadow 20:45:38 -63° 265° (W) 12,282 8.1 -21.0°
Maximum altitude 21:20:55 77° 3° (N) 2,790 4.8 -12.4°
